Location: Engle Ridge Observatory
(44.8122°N, 85.4398°W)
Time: 17:50:52
(UTC-05:00)

Daily predictions for brighter satellites

Satellite Brightness Start Highest point End
(mag) Time Altitude Azimuth Time Altitude Azimuth Time Altitude Azimuth
Cosmos 2285 Rocket 4.1 18:50:17 10° SSW 18:56:38 88° WNW 19:03:05 10° NNE
USA 215 4.2 18:51:17 10° ENE 18:56:45 28° SE 19:02:11 10° S
Cosmos 2237 Rocket 2.5 18:51:16 10° NNW 18:56:54 74° WSW 19:02:29 10° SSE
MOS 1 4.3 18:51:51 10° SSE 18:57:30 83° ENE 19:03:13 10° NNW
Cosmos 2227 Rocket 2.2 18:51:53 10° SSW 18:57:31 78° ESE 19:03:12 10° NNE
Cosmos 2219 4.3 18:52:15 10° SW 18:57:39 46° WNW 19:03:05 10° NNE
FENGYUN 3A 3.8 18:53:23 10° SSE 18:58:47 87° WSW 19:04:15 10° NNW
SeaSat 1 3.4 18:54:46 10° ESE 18:58:53 27° NE 19:03:01 10° N
SJ-6B 4.0 18:57:53 10° ESE 19:00:46 21° ENE 19:03:44 10° NNE
SL-16 R/B 2.4 18:55:14 10° NNW 19:00:48 53° ENE 19:06:19 10° SE
Envisat 4.1 18:57:17 10° ESE 19:01:12 23° ENE 19:05:08 10° NNE
Tiangong 2 2.6 18:59:11 10° W 19:02:04 32° SSW 19:04:56 10° SE
Cosmos 44 Rocket 3.5 18:59:23 10° NNW 19:04:19 54° NE 19:09:20 10° SE
Cosmos 1674 Rocket 3.5 19:02:15 10° N 19:06:35 64° E 19:10:52 10° SSE
NOSS 3-2 (C) 3.5 19:01:27 10° SW 19:07:24 87° SE 19:14:05 10° NE
FREGAT/IRIS 3.3 19:04:49 10° SE 19:07:29 31° ENE 19:10:11 10° N
Cosmos 2034 Rocket 4.5 19:03:47 10° N 19:09:44 39° ENE 19:15:38 10° SE
H-2A R/B 2.8 19:06:25 10° SSE 19:10:16 59° ENE 19:14:08 10° N
CZ-4 R/B 3.8 19:07:58 10° SSW 19:11:27 27° W 19:14:54 10° NW
Cosmos 2297 Rocket 2.2 19:05:48 10° SSW 19:11:27 86° ESE 19:17:10 10° NNE
Okean 1 4.1 19:08:43 10° NNE 19:12:14 29° ENE 19:15:43 10° SE
HJ-1C 4.3 19:09:37 10° SE 19:12:36 29° ENE 19:15:37 10° N
MTI 3.8 19:09:33 10° N 19:12:45 81° WNW 19:15:55 10° SSW
Meteor 1-14 Rocket 4.4 19:07:12 10° S 19:12:49 55° E 19:18:34 10° NNE
MOS 1-B Rocket 4.3 19:07:14 10° S 19:13:35 73° WSW 19:19:19 10° NNW
Okean 3 3.4 19:10:13 10° N 19:14:23 62° E 19:18:30 10° SSE
Cosmos 1908 Rocket 3.9 19:12:16 10° SSE 19:16:28 42° E 19:20:42 10° NNE
YAOGAN 1 4.4 19:13:51 10° SSW 19:17:49 36° W 19:21:51 10° NNW
Cosmos 921 Rocket 3.7 19:14:34 10° N 19:18:45 36° ENE 19:22:54 10° SE
Meteor 1-20 Rocket 4.4 19:14:11 10° SSE 19:19:40 52° E 19:25:18 10° NNE
Cosmos 1633 2.7 19:16:37 10° S 19:20:03 49° E 19:23:32 10° NNE
Cosmos 1733 Rocket 3.4 19:18:46 10° SSW 19:23:03 69° W 19:27:23 10° N
ERS-2 2.1 19:19:38 10° SSE 19:23:17 61° ENE 19:26:56 10° N
Cosmos 1812 2.8 19:22:14 10° N 19:26:07 79° W 19:29:59 10° S
CZ-2D R/B 3.9 19:24:06 10° SE 19:27:39 35° ENE 19:31:13 10° N
ALOS 3.9 19:26:25 10° SSW 19:30:46 39° W 19:35:10 10° NNW
USA 267 3.9 19:27:11 16° E 19:31:50 40° NNE 19:37:49 10° NW
CENTAUR R/B 2.6 19:26:46 10° SSW 19:32:38 59° ESE 19:39:22 10° NE
CZ-4C R/B 3.8 19:27:55 10° NNW 19:33:42 28° NNE 19:37:37 19° ENE
Meteor 1-18 Rocket 4.1 19:28:16 10° N 19:33:54 77° E 19:39:25 10° SSE
Cosmos 44 3.7 19:30:21 10° NW 19:35:21 70° WSW 19:40:35 10° SSE
SL-8 R/B 3.7 19:32:58 10° SW 19:37:43 70° SSE 19:40:30 24° ENE
Cosmos 1602 4.4 19:36:23 10° SSE 19:39:53 32° E 19:43:22 10° NNE
Cosmos 2082 4.1 19:34:31 10° SW 19:40:05 65° WNW 19:45:44 10° NNE
Cosmos 1975 Rocket 3.3 19:37:13 10° N 19:41:30 45° ENE 19:45:46 10° SSE
Resurs 01 Rocket 2.4 19:42:38 27° E 19:43:42 31° ENE 19:47:35 10° N
Aureole 3 4.4 19:38:30 10° SSW 19:44:22 68° W 19:48:59 10° N
Cosmos 1513 Rocket 4.5 19:39:00 10° N 19:45:25 84° E 19:51:41 10° S
Lacrosse 5 4.4 19:42:07 10° WNW 19:45:44 20° WSW 19:49:20 10° SSW
Cosmos 1452 Rocket 4.1 19:41:24 10° NNW 19:46:35 59° WSW 19:51:43 10° S
Meteor 1-25 Rocket 4.2 19:41:37 10° S 19:47:10 87° WNW 19:52:47 10° N
Meteor 1-19 Rocket 4.3 19:43:47 10° N 19:49:10 49° ENE 19:54:30 10° SSE
Spot 2 Rocket 4.2 19:49:48 29° E 19:51:04 33° ENE 19:55:35 10° N
Iridium 4 Rocket 3.3 19:46:25 10° N 19:51:24 86° W 19:55:55 10° S
Meteor 2-4 Rocket 4.2 19:47:05 10° N 19:52:29 38° ENE 19:54:53 26° ESE
Cosmos 1048 Rocket 3.9 19:49:00 10° S 19:54:18 72° ESE 19:59:34 10° NNE
Cosmos 158 Rocket 3.9 19:49:33 10° SSW 19:54:27 77° WNW 19:59:21 10° NNE
Meteor 1-11 Rocket 4.2 19:49:38 10° SSE 19:54:36 34° E 19:59:40 10° NNE
Cosmos 1437 Rocket 2.8 19:50:39 10° S 19:54:38 60° E 19:58:41 10° NNE
CRYOSAT 2 4.3 19:51:59 10° N 19:56:51 63° E 20:01:40 10° S
Cosmos 2227 4.5 19:54:27 10° S 19:59:51 44° ESE 20:03:12 22° NE
Gbstr 26 Del rocket 4.4 19:57:02 10° S 19:58:45 19° SSE 19:58:45 19° SSE
COSMOS 2455 4.1 19:56:33 10° SSE 19:59:33 22° SE 19:59:33 22° SE
USA 186 3.0 20:03:05 30° NNE 20:03:05 30° NNE 20:05:05 10° N
ATLAS 3B R/B 4.3 19:56:09 10° W 20:02:19 30° NW 20:08:16 10° NNE
Cosmos 1378 Rocket 4.4 20:00:46 10° NNW 20:05:02 51° W 20:09:19 10° S
Cosmos 1939 Rocket 3.3 20:05:46 42° NE 20:05:46 42° NE 20:09:17 10° N
Tsikada Rocket 4.0 19:59:39 10° S 20:06:00 68° E 20:12:23 10° NNE
Cosmos 1782 Rocket 3.6 20:09:42 10° S 20:14:09 81° W 20:18:35 10° N
Sich 1 Rocket 4.1 20:11:06 10° SSW 20:15:33 60° W 20:20:00 10° N
ATLAS CENTAUR R/B 3.0 20:19:43 10° NNW 20:21:59 23° NNE 20:21:59 23° NNE
Cosmos 1943 3.4 20:21:31 10° NNW 20:27:01 50° ENE 20:27:09 50° ENE
Okean 2 Rocket 3.0 20:27:17 10° S 20:31:40 86° W 20:36:07 10° N
ARGOS Delta rocket 4.2 20:27:18 10° N 20:32:11 65° WNW 20:36:46 10° SSW
SeaSat 1 3.2 20:32:53 20° S 20:36:10 50° WSW 20:40:58 10° NW
YAOGAN 6 4.5 20:38:30 24° NNW 20:38:30 24° NNW 20:40:01 10° NNW
Meteor 1-23 Rocket 4.4 20:33:01 10° N 20:38:15 56° NE 20:38:15 56° NE
Thor Agena Rocket 4.1 20:34:47 10° N 20:39:46 56° WNW 20:44:42 10° SSW
Envisat 3.8 20:34:58 10° S 20:39:54 50° W 20:44:51 10° NNW
USA 215 3.2 20:37:21 37° NE 20:40:16 88° NW 20:46:49 10° SW
SL-16 R/B 4.3 20:40:03 10° NW 20:44:33 25° WSW 20:49:01 10° SSW
Cosmos 2279 Rocket 4.4 20:44:45 10° N 20:49:30 46° NE 20:49:30 46° NE
Cosmos 1110 Rocket 4.3 20:48:47 10° NNW 20:54:00 63° WSW 20:54:45 56° SSW
Cosmos 1603 4.3 20:57:56 10° NW 21:03:24 51° WSW 21:04:35 43° SSW
H-2A R/B 4.0 21:11:56 19° N 21:11:56 19° N 21:13:34 10° N
Cosmos 1634 Rocket 4.2 21:02:37 10° NNW 21:08:45 68° W 21:10:07 52° SSW
USA 267 3.1 21:14:32 86° N 21:14:32 86° N 21:21:01 10° NW
Resurs 01 Rocket 3.5 21:20:12 28° W 21:20:12 28° W 21:23:59 10° NW
CZ-4C R/B 2.8 21:16:05 10° NW 21:22:50 80° N 21:22:50 80° N
CENTAUR R/B 3.9 21:17:55 10° WSW 21:23:42 36° NW 21:27:59 19° NNE
